Regional Weather Roundup
Issued by NWS

Home | Current Version | Previous Version | Text Only | Print | Product List | Glossary Off
Versions: 1 2 3 4 5 6 7 8 9 10 11 12 13 14 15 16 17 18 19 20 21 22 23 24 25 26 27 28 29 30 31 32 33 34 35 36 37 38 39 40 41 42 43 44 45 46 47 48 49 50

000
ASUS43 KLMK 282202
RWRKY
KENTUCKY REGIONAL WEATHER ROUNDUP
NATIONAL WEATHER SERVICE LOUISVILLE KY
500 PM EST SAT FEB 28 2015

NOTE "FAIR" INDICATES FEW OR NO CLOUDS BELOW 12,000 FEET
WITH NO SIGNIFICANT WEATHER AND/OR OBSTRUCTIONS TO VISIBILITY.

KYZ001>023-026-027-061>063-070>075-282300-
WESTERN AND SOUTH CENTRAL KENTUCKY

CITY           SKY/WX    TMP DP  RH WIND       PRES   REMARKS
PADUCAH        CLOUDY    34  18  52 E6        30.46F WCI  29
HENDERSON      CLOUDY    34  18  51 NE8       30.50F WCI  27
OWENSBORO      CLOUDY    37  14  39 SE8       30.50S WCI  31
HOPKINSVILLE   PTSUNNY   35  22  59 E7        30.46F WCI  29
BOWLING GREEN  PTSUNNY   39  21  48 NE8       30.49F WCI  33
GLASGOW        NOT AVBL
$$

KYZ024-025-028>034-038-045-046-053-282300-
NORTH CENTRAL KENTUCKY

CITY           SKY/WX    TMP DP  RH WIND       PRES   REMARKS
LOUISVILLE/SDF CLOUDY    35  14  42 E9        30.53F WCI  28
LOUISVILLE/LOU CLOUDY    35  12  38 E6        30.54F WCI  30
FORT KNOX      CLOUDY    36  13  40 E8        30.49S WCI  29
$$

KYZ035>037-039>044-047>052-055>060-089>105-282300-
NORTHEAST KENTUCKY

CITY           SKY/WX    TMP DP  RH WIND       PRES   REMARKS
LEXINGTON      CLOUDY    33  16  49 E8        30.53F WCI  26
COVINGTON      CLOUDY    29  10  45 E7        30.55F WCI  22
FRANKFORT        N/A     32  16  51 E10       30.53F WCI  24
$$

KYZ054-064>069-076>088-106>120-282300-
SOUTHEAST KENTUCKY

CITY           SKY/WX    TMP DP  RH WIND       PRES   REMARKS
JACKSON        CLOUDY    40  16  37 E5        30.50F
LONDON         PTSUNNY   44  17  33 E5        30.49F
SOMERSET       NOT AVBL
MIDDLESBORO    MOSUNNY   44  24  46 SE3       30.50F
MONTICELLO     MOCLDY    45  25  45 N8        30.50F
$$




USA.gov is the U.S. government's official web portal to all federal, state and local government web resources and services.